CZ-4C R/B - Orbit

View from above orbital plane
View from above orbital plane
View from above satellite
View from above satellite

Ground track
Ground track

The orbit data is extracted from the following two-line orbital elements,

1 36416U 10009D   13168.50776318 -.00000046  00000-0  46757-4 0  5525
2 36416 063.4505 215.8239 0244273 002.9752 142.2732 13.69373608164358
Epoch (UTC): 17 June 2013 12:11:10
Eccentricity: 0.0244273
inclination: 63.4505°
perigee height: 821 km
apogee height: 1182 km
right ascension of ascending node: 215.8239°
argument of perigee: 2.9752°
revolutions per day: 13.69373608
mean anomaly at epoch: 142.2732°
orbit number at epoch: 16435

The dashed part of the orbit path shows where the satellite is in the earth's shadow,  

Developed and maintained by Chris Peat, Heavens-Above GmbH. Please read the updated FAQ before sending e-mail. Imprint. DLR